Tillbaka till svenska Fidonet
English   Information   Debug  
FILM   0/18
FNEWS_PUBLISH   4940
FN_SYSOP   42222
FN_SYSOP_OLD1   71952
FTP_FIDO   0/2
FTSC_PUBLIC   0/13973
FUNNY   0/4886
GENEALOGY.EUR   0/71
GET_INFO   105
GOLDED   0/408
HAM   2263/16677
HOLYSMOKE   0/6791
HOT_SITES   0/1
HTMLEDIT   0/71
HUB203   466
HUB_100   264
HUB_400   39
HUMOR   0/29
IC   0/2851
INTERNET   0/424
INTERUSER   0/3
IP_CONNECT   719
JAMNNTPD   0/233
JAMTLAND   0/47
KATTY_KORNER   0/41
LAN   0/16
LINUX-USER   0/19
LINUXHELP   0/1155
LINUX   0/22302
LINUX_BBS   0/957
mail   18.68
mail_fore_ok   249
MENSA   0/341
MODERATOR   0/102
MONTE   0/992
MOSCOW_OKLAHOMA   0/1245
MUFFIN   0/783
MUSIC   0/321
N203_STAT   938
N203_SYSCHAT   313
NET203   321
NET204   69
NET_DEV   0/10
NORD.ADMIN   0/101
NORD.CHAT   0/2572
NORD.FIDONET   189
NORD.HARDWARE   0/28
NORD.KULTUR   0/114
NORD.PROG   0/32
NORD.SOFTWARE   0/88
NORD.TEKNIK   0/58
NORD   0/453
OCCULT_CHAT   0/93
OS2BBS   0/787
OS2DOSBBS   0/580
OS2HW   0/42
OS2INET   0/37
OS2LAN   0/134
OS2PROG   0/36
OS2REXX   0/113
OS2USER-L   207
OS2   0/4831
OSDEBATE   14643/18996
PASCAL   0/490
PERL   0/457
PHP   0/45
POINTS   0/405
POLITICS   0/29554
POL_INC   0/14731
PSION   103
R20_ADMIN   1133
R20_AMATORRADIO   0/2
R20_BEST_OF_FIDONET   16
R20_CHAT   0/896
R20_DEPP   0/3
R20_DEV   400
R20_ECHO2   1847
R20_ECHOPRES   0/35
R20_ESTAT   0/719
R20_FIDONETPROG...
...RAM.MYPOINT
  0/2
R20_FIDONETPROGRAM   0/22
R20_FIDONET   0/248
R20_FILEFIND   0/24
R20_FILEFOUND   0/22
R20_HIFI   0/3
R20_INFO2   3739
R20_INTERNET   0/12940
R20_INTRESSE   0/60
R20_INTR_KOM   0/99
R20_KANDIDAT.CHAT   42
R20_KANDIDAT   28
R20_KOM_DEV   112
R20_KONTROLL   0/13360
R20_KORSET   0/18
R20_LOKALTRAFIK   0/24
R20_MODERATOR   0/1852
R20_NC   76
R20_NET200   245
R20_NETWORK.OTH...
...ERNETS
  0/13
R20_OPERATIVSYS...
...TEM.LINUX
  0/44
R20_PROGRAMVAROR   0/1
R20_REC2NEC   534
R20_SFOSM   0/341
R20_SF   0/108
R20_SPRAK.ENGLISH   0/1
R20_SQUISH   107
R20_TEST   2
R20_WORST_OF_FIDONET   20
RAR   0/9
RA_MULTI   106
RA_UTIL   0/162
REGCON.EUR   0/2068
REGCON   0/13
SCIENCE   0/1206
SF   0/239
SHAREWARE_SUPPORT   0/5146
SHAREWRE   0/14
SIMPSONS   0/169
STATS_OLD1   0/2539.065
STATS_OLD2   0/2530
STATS_OLD3   0/2395.095
STATS_OLD4   0/1692.25
SURVIVOR   0/495
SYSOPS_CORNER   0/3
SYSOP   0/84
TAGLINES   0/112
TEAMOS2   0/4530
TECH   1651/2617
TEST.444   0/105
TRAPDOOR   0/19
TREK   0/755
TUB   0/290
UFO   0/40
UNIX   0/1316
USA_EURLINK   0/102
USR_MODEMS   0/1
VATICAN   0/2740
VIETNAM_VETS   0/14
VIRUS   0/378
VIRUS_INFO   133/201
VISUAL_BASIC   0/473
WHITEHOUSE   0/5187
WIN2000   0/101
WIN32   0/30
WIN95   0/4291
WIN95_OLD1   0/70272
WINDOWS   0/1517
WWB_SYSOP   0/419
WWB_TECH   0/810
ZCC-PUBLIC   0/1
ZEC   4

 
4DOS   0/134
ABORTION   0/7
ALASKA_CHAT   0/506
ALLFIX_FILE   0/1313
ALLFIX_FILE_OLD1   0/7997
ALT_DOS   0/152
AMATEUR_RADIO   0/1039
AMIGASALE   0/14
AMIGA   0/331
AMIGA_INT   0/1
AMIGA_PROG   0/20
AMIGA_SYSOP   0/26
ANIME   0/15
ARGUS   0/924
ASCII_ART   0/340
ASIAN_LINK   0/651
ASTRONOMY   0/417
AUDIO   0/92
AUTOMOBILE_RACING   0/105
BABYLON5   0/17862
BAG   135
BATPOWER   0/361
BBBS.ENGLISH   0/382
BBSLAW   0/109
BBS_ADS   0/5290
BBS_INTERNET   0/507
BIBLE   0/3563
BINKD   0/1119
BINKLEY   0/215
BLUEWAVE   0/2173
CABLE_MODEMS   0/25
CBM   0/46
CDRECORD   0/66
CDROM   0/20
CLASSIC_COMPUTER   0/378
COMICS   0/15
CONSPRCY   0/899
COOKING   41611
COOKING_OLD1   15365/24719
COOKING_OLD2   34924/40862
COOKING_OLD3   27881/37489
COOKING_OLD4   23777/35496
COOKING_OLD5   9370
C_ECHO   0/189
C_PLUSPLUS   0/31
DIRTY_DOZEN   0/201
DOORGAMES   0/2313
DOS_INTERNET   0/196
duplikat   6102
ECHOLIST   13553/18295
EC_SUPPORT   0/318
ELECTRONICS   0/359
ELEKTRONIK.GER   1534
ENET.LINGUISTIC   0/13
ENET.POLITICS   0/4
ENET.SOFT   0/11701
ENET.SYSOP   34298
ENET.TALKS   0/32
ENGLISH_TUTOR   0/2000
EVOLUTION   0/1335
FDECHO   0/217
FDN_ANNOUNCE   0/7068
FIDONEWS   25079
FIDONEWS_OLD1   7/49742
FIDONEWS_OLD2   0/35949
FIDONEWS_OLD3   0/30874
FIDONEWS_OLD4   0/37224
FIDO_SYSOP   12923
FIDO_UTIL   0/180
FILEFIND   0/209
FILEGATE   0/212
Möte HAM, 16677 texter
 lista första sista föregående nästa
Text 5181, 977 rader
Skriven 2012-04-05 23:01:07 av Amsat List (1:323/120.0)
Ärende: [keps] orb12096.amsa
============================
[keps] orb12096.amsa

Sender: keps-bounces@amsat.org
Return-Path: <keps-bounces@amsat.org>
X-Rcpt: craig.healy@chowda.com
X-UIDL: 1333680417.801

SB KEPS @ AMSAT  $ORB12096.O
Orbital Elements  12096.OSCAR

HR AMSAT ORBITAL ELEMENTS FOR OSCAR SATELLITES
FROM WA5QGD FORT WORTH,TX April 5, 2012
Send SUBSCRIBE KEPS/UNSUBSCRIBE KEPS to majordomo@amsat.org only
BID: ORB12096.O
TO ALL RADIO AMATEURS BT

Satellite: AO-07
Catalog number: 07530
Epoch time:      12095.48483840
Element set:    0350
Inclination:      101.4019 deg
RA of node:       095.5458 deg
Eccentricity:    0.0012116
Arg of perigee:   066.9442 deg
Mean anomaly:     293.2909 deg
Mean motion:   12.53588472 rev/day
Decay rate:       -2.7e-07 rev/day^2
Epoch rev:           71081
Checksum:              297

Satellite: FO-29
Catalog number: 24278
Epoch time:      12095.90022129
Element set:    0815
Inclination:      098.5787 deg
RA of node:       206.1610 deg
Eccentricity:    0.0350015
Arg of perigee:   218.9441 deg
Mean anomaly:     138.6007 deg
Mean motion:   13.52979774 rev/day
Decay rate:        3.7e-07 rev/day^2
Epoch rev:           77204
Checksum:              313

Satellite: SO-33
Catalog number: 25509
Epoch time:      12095.90162064
Element set:    0202
Inclination:      031.4360 deg
RA of node:       028.3968 deg
Eccentricity:    0.0353227
Arg of perigee:   281.9615 deg
Mean anomaly:     074.1617 deg
Mean motion:   14.28689742 rev/day
Decay rate:       3.68e-06 rev/day^2
Epoch rev:           70216
Checksum:              303

Satellite: RS-22
Catalog number: 27939
Epoch time:      12096.54935233
Element set:     237
Inclination:      097.8185 deg
RA of node:       301.0717 deg
Eccentricity:    0.0014232
Arg of perigee:   132.4665 deg
Mean anomaly:     227.7755 deg
Mean motion:   14.63957139 rev/day
Decay rate:       6.29e-06 rev/day^2
Epoch rev:           45525
Checksum:              325

Satellite: VO-52
Catalog number: 28650
Epoch time:      12095.84181658
Element set:      67
Inclination:      097.6048 deg
RA of node:       130.3666 deg
Eccentricity:    0.0025377
Arg of perigee:   282.9687 deg
Mean anomaly:     076.8728 deg
Mean motion:   14.82791293 rev/day
Decay rate:       9.15e-06 rev/day^2
Epoch rev:           37410
Checksum:              348

Satellite: HO-68
Catalog number: 36122
Epoch time:      12096.62834490
Element set:     350
Inclination:      100.3693 deg
RA of node:       157.4170 deg
Eccentricity:    0.0007129
Arg of perigee:   275.3820 deg
Mean anomaly:     084.6477 deg
Mean motion:   13.16294299 rev/day
Decay rate:       -4.4e-07 rev/day^2
Epoch rev:           11084
Checksum:              299

/EX
SB KEPS @ AMSAT  $ORB12096.D
Orbital Elements  12096.MICROS

HR AMSAT ORBITAL ELEMENTS FOR THE MICROSATS
FROM WA5QGD FORT WORTH,TX April 5, 2012
Send SUBSCRIBE KEPS/UNSUBSCRIBE KEPS to majordomo@amsat.org only
BID: ORB12096.D
TO ALL RADIO AMATEURS BT

Satellite: UO-11
Catalog number: 14781
Epoch time:      12095.92125242
Element set:    0833
Inclination:      097.9628 deg
RA of node:       156.0596 deg
Eccentricity:    0.0007881
Arg of perigee:   272.5396 deg
Mean anomaly:     087.4913 deg
Mean motion:   14.80368287 rev/day
Decay rate:       4.94e-06 rev/day^2
Epoch rev:           50909
Checksum:              341

Satellite: AO-16
Catalog number: 20439
Epoch time:      12095.86341622
Element set:    0443
Inclination:      098.4231 deg
RA of node:       041.3148 deg
Eccentricity:    0.0011528
Arg of perigee:   020.6015 deg
Mean anomaly:     339.5628 deg
Mean motion:   14.32033949 rev/day
Decay rate:       1.91e-06 rev/day^2
Epoch rev:           15950
Checksum:              279

Satellite: LO-19
Catalog number: 20442
Epoch time:      12096.87561532
Element set:     361
Inclination:      098.3892 deg
RA of node:       045.5592 deg
Eccentricity:    0.0012240
Arg of perigee:   010.0729 deg
Mean anomaly:     350.0691 deg
Mean motion:   14.32254180 rev/day
Decay rate:       1.46e-06 rev/day^2
Epoch rev:           15983
Checksum:              285

Satellite: AO-27
Catalog number: 22825
Epoch time:      12096.86936379
Element set:      71
Inclination:      098.5688 deg
RA of node:       040.8319 deg
Eccentricity:    0.0009205
Arg of perigee:   128.9635 deg
Mean anomaly:     231.2364 deg
Mean motion:   14.29443750 rev/day
Decay rate:       1.04e-06 rev/day^2
Epoch rev:           96614
Checksum:              325

Satellite: IO-26
Catalog number: 22826
Epoch time:      12095.90427898
Element set:    0832
Inclination:      098.5628 deg
RA of node:       040.2725 deg
Eccentricity:    0.0009504
Arg of perigee:   124.9263 deg
Mean anomaly:     235.2808 deg
Mean motion:   14.29715664 rev/day
Decay rate:       1.31e-06 rev/day^2
Epoch rev:           96613
Checksum:              321

Satellite: GO-32
Catalog number: 25397
Epoch time:      12095.65213738
Element set:     742
Inclination:      098.3567 deg
RA of node:       078.0051 deg
Eccentricity:    0.0002078
Arg of perigee:   121.0945 deg
Mean anomaly:     239.0456 deg
Mean motion:   14.23265405 rev/day
Decay rate:       -9.0e-08 rev/day^2
Epoch rev:           71356
Checksum:              299

Satellite: NO-44
Catalog number: 26931
Epoch time:      12095.87220840
Element set:    0009
Inclination:      067.0537 deg
RA of node:       309.2960 deg
Eccentricity:    0.0007064
Arg of perigee:   275.2431 deg
Mean anomaly:     084.7867 deg
Mean motion:   14.29779045 rev/day
Decay rate:       3.12e-06 rev/day^2
Epoch rev:           54876
Checksum:              318

